Home   Weather   Córdoba   Past weeks

Flag for Spain Past Weather in Córdoba, Spain — Yesterday and Last 2 Weeks

Now
30 °F

Chilly.


Feels Like: 30 °F
Forecast: 32 / 57 °F
Wind: No wind

Location: Cordoba / Aeropuerto

Current Time: Jan 23, 2017 at 7:39:24 am

Latest Report: Jan 23, 2017 at 7:00 am


Visibility: N/A

Pressure: 30.09 "Hg

Humidity: 100%

Dew Point: 30 °F

Location of CórdobaLocation

Past Weather in Córdoba — Graph

°F

Córdoba Temperature Yesterday

Maximum temperature yesterday: 59 °F (at 3:30 pm)
Minimum temperature yesterday: 30 °F (at 7:30 am)
Average temperature yesterday: 43 °F

High & Low Weather Summary for the Past Weeks

 TemperatureHumidityPressure
High64 °F (Jan 12, 3:00 pm)100% (Jan 8, 8:00 am)30.48 "Hg (Jan 8, 8:00 am)
Low27 °F (Jan 18, 8:30 am)22% (Jan 18, 4:30 pm)29.92 "Hg (Jan 20, 1:00 am)
Average44 °F72%30.19 "Hg
* Reported Jan 8 6:00 am — Jan 23 6:30 am, Córdoba, Weather by CustomWeather, © 2017

Note: Actual official high and low records may vary slightly from our data, if they occured in-between our weather recording intervals... More about our weather records

Advertising

Córdoba Weather History for the Previous 24 Hours

Scroll right to see more
 ConditionsComfort  
Time TempWeatherWind HumidityBarometerVisibility
6:30 am
Mon, Jan 23
30 °FChilly.No wind93%30.09 "Hg6 mi
6:00 am30 °FChilly.No wind93%30.09 "HgN/A
5:30 am30 °FChilly.No wind93%30.09 "HgN/A
5:00 am32 °FChilly.No wind93%30.09 "HgN/A
4:30 am32 °FChilly.1 mph93%30.09 "HgN/A
4:00 am34 °FChilly.No wind93%30.07 "HgN/A
3:30 am34 °FChilly.1 mph93%30.07 "HgN/A
3:00 am36 °FChilly.No wind93%30.07 "HgN/A
2:30 am34 °FChilly.No wind93%30.07 "HgN/A
2:00 am36 °FChilly.No wind93%30.07 "HgN/A
1:30 am36 °FChilly.No wind93%30.07 "HgN/A
1:00 am37 °FChilly.No wind87%30.09 "HgN/A
12:30 am39 °FChilly.2 mph87%30.07 "HgN/A
12:00 am39 °FChilly.1 mph81%30.09 "HgN/A
11:30 pm
Sun, Jan 22
41 °FQuite cool.5 mph76%30.07 "HgN/A
11:00 pm43 °FQuite cool.No wind81%30.07 "HgN/A
10:30 pm41 °FQuite cool.No wind81%30.07 "HgN/A
10:00 pm41 °FQuite cool.3 mph81%30.07 "HgN/A
9:30 pm43 °FQuite cool.1 mph76%30.07 "HgN/A
9:00 pm45 °FQuite cool.1 mph71%30.07 "HgN/A
8:30 pm45 °FQuite cool.3 mph71%30.04 "HgN/A
8:00 pm48 °FCool.3 mph62%30.04 "HgN/A
7:30 pm50 °FCool.2 mph62%30.04 "HgN/A
7:00 pm52 °FCool.5 mph58%30.04 "HgN/A
6:30 pm55 °FRefreshingly cool.7 mph51%30.01 "HgN/A
6:00 pm57 °FRefreshingly cool.8 mph51%30.01 "HgN/A
5:30 pm59 °FRefreshingly cool.10 mph45%30.01 "HgN/A
5:00 pm59 °FRefreshingly cool.10 mph45%30.01 "HgN/A
4:30 pm59 °FRefreshingly cool.9 mph45%30.01 "HgN/A
4:00 pm59 °FRefreshingly cool.12 mph48%30.01 "HgN/A
3:30 pm59 °FRefreshingly cool.12 mph48%30.01 "HgN/A
3:00 pm57 °FPassing clouds.10 mph51%30.04 "HgN/A
2:30 pm55 °FPassing clouds.9 mph55%30.04 "HgN/A
2:00 pm54 °FPassing clouds.7 mph58%30.07 "HgN/A
1:30 pm54 °FPassing clouds.8 mph58%30.07 "HgN/A
1:00 pm52 °FPassing clouds.5 mph62%30.09 "HgN/A
12:30 pm48 °FPassing clouds.3 mph71%30.12 "HgN/A
12:00 pm46 °FSunny.No wind71%30.12 "Hg10 mi
11:30 am45 °FSunny.No wind76%30.12 "Hg10 mi
11:00 am43 °FSunny.No wind81%30.12 "Hg10 mi
10:30 am39 °FSunny.No wind81%30.12 "Hg10 mi
10:00 am37 °FSunny.No wind87%30.12 "Hg10 mi
9:30 am32 °FSunny.No wind93%30.09 "Hg10 mi
9:00 am30 °FSunny.No wind93%30.09 "Hg10 mi
8:30 am30 °FClear.No wind93%30.09 "Hg10 mi
8:00 am30 °FClear.No wind93%30.09 "Hg10 mi
7:30 am30 °FChilly.1 mph93%30.07 "HgN/A
7:00 am32 °FChilly.No wind93%30.07 "HgN/A
Weather by CustomWeather, © 2017

See weather overviewHow to use our weather pages